This is the latest recevied weather packets stored in our database for station/object N4XWC. If no packets are shown the sender has not sent any weather packets the latest 10 day(s).
| Time | Temp. | Humidity | Pressure | Rain* | Wind** | Luminosity | Snow |
|---|---|---|---|---|---|---|---|
| 1777843809 | 20° C | 41% | 1018.2 hPa | 0 mm | - | - | - |
| 1777843508 | 20° C | 41% | 1018.3 hPa | 0 mm | - | - | - |
| 1777843334 | 20° C | 40% | 1018.3 hPa | 0 mm | - | - | - |
| 1777843209 | 20° C | 40% | 1018.3 hPa | 0 mm | - | - | - |
| 1777842908 | 20° C | 39% | 1018.3 hPa | 0 mm | - | - | - |
| 1777842734 | 20° C | 41% | 1018.4 hPa | 0 mm | - | - | - |
| 1777842607 | 20° C | 41% | 1018.4 hPa | 0 mm | - | - | - |
| 1777842308 | 20° C | 40% | 1018.4 hPa | 0 mm | - | - | - |
| 1777842135 | 20° C | 43% | 1018.4 hPa | 0 mm | - | - | - |
| 1777842009 | 20° C | 41% | 1018.4 hPa | 0 mm | - | - | - |
| 1777841708 | 20° C | 41% | 1018.7 hPa | 0 mm | - | - | - |
| 1777841534 | 20.56° C | 39% | 1018.7 hPa | 0 mm | - | - | - |
| 1777841410 | 20.56° C | 39% | 1018.7 hPa | 0 mm | - | - | - |
| 1777841109 | 20.56° C | 39% | 1018.7 hPa | 0 mm | - | - | - |
| 1777840934 | 20.56° C | 40% | 1019 hPa | 0 mm | - | - | - |
| 1777840808 | 20.56° C | 39% | 1019 hPa | 0 mm | - | - | - |
| 1777840508 | 20.56° C | 42% | 1019 hPa | 0 mm | - | - | - |
| 1777840335 | 20.56° C | 39% | 1019 hPa | 0 mm | - | - | - |
| 1777840208 | 20.56° C | 39% | 1019 hPa | 0 mm | - | - | - |
| 1777839908 | 20.56° C | 39% | 1019.1 hPa | 0 mm | - | - | - |
| 1777839734 | 20.56° C | 38% | 1019.1 hPa | 0 mm | - | - | - |
| 1777839607 | 20.56° C | 41% | 1019.1 hPa | 0 mm | - | - | - |
| 1777839308 | 20.56° C | 41% | 1019.1 hPa | 0 mm | - | - | - |
| 1777839135 | 20.56° C | 40% | 1019.5 hPa | 0 mm | - | - | - |
| 1777839009 | 20.56° C | 40% | 1019.5 hPa | 0 mm | - | - | - |
* Rain latest hour (hover to see other rain measurements)
** Current wind speed in m/s (hover to see current wind gust speed)